This is the latest recevied weather packets stored in our database for station/object KC3SOZ. If no packets are shown the sender has not sent any weather packets the latest 10 day(s).
| Time | Temp. | Humidity | Pressure | Rain* | Wind** | Luminosity | Snow |
|---|---|---|---|---|---|---|---|
| 1777902082 | 15.56° C | 47% | 1013.8 hPa | 0 mm | - | 512 W/m² | - |
| 1777901781 | 15° C | 53% | 1014 hPa | 0 mm | - | 503 W/m² | - |
| 1777901477 | 15° C | 51% | 1014.2 hPa | 0 mm | - | 486 W/m² | - |
| 1777901175 | 15° C | 52% | 1014.2 hPa | 0 mm | - | 470 W/m² | - |
| 1777900873 | 13.89° C | 53% | 1014.1 hPa | 0 mm | - | 463 W/m² | - |
| 1777900570 | 13.89° C | 59% | 1014.1 hPa | 0 mm | - | 446 W/m² | - |
| 1777900267 | 13.33° C | 63% | 1014.6 hPa | 0 mm | - | 435 W/m² | - |
| 1777899963 | 12.78° C | 63% | 1014.3 hPa | 0 mm | - | 387 W/m² | - |
| 1777899660 | 12.22° C | 63% | 1014.4 hPa | 0 mm | - | 347 W/m² | - |
| 1777899358 | 11.67° C | 69% | 1014.5 hPa | 0 mm | - | 439 W/m² | - |
| 1777899055 | 10.56° C | 77% | 1014.6 hPa | 0 mm | - | 393 W/m² | - |
| 1777898751 | 10° C | 86% | 1014.7 hPa | 0 mm | - | 349 W/m² | - |
| 1777898449 | 9.44° C | 94% | 1014.6 hPa | 0 mm | - | 321 W/m² | - |
| 1777898147 | 7.78° C | 95% | 1014.6 hPa | 0 mm | - | 316 W/m² | - |
| 1777897844 | 7.22° C | 95% | 1014.7 hPa | 0 mm | - | 133 W/m² | - |
| 1777897540 | 6.67° C | 95% | 1014.5 hPa | 0 mm | - | 121 W/m² | - |
| 1777897235 | 6.67° C | 94% | 1014.7 hPa | 0 mm | - | 114 W/m² | - |
| 1777896932 | 6.67° C | 95% | 1014.6 hPa | 0 mm | - | 95 W/m² | - |
| 1777896629 | 6.11° C | 96% | 1014.7 hPa | 0 mm | - | 90 W/m² | - |
| 1777896326 | 5.56° C | 95% | 1014.8 hPa | 0 mm | - | 101 W/m² | - |
| 1777896025 | 5.56° C | 95% | 1014.7 hPa | 0 mm | - | 99 W/m² | - |
| 1777895722 | 5° C | 96% | 1014.9 hPa | 0 mm | - | 97 W/m² | - |
| 1777895419 | 5° C | 96% | 1014.5 hPa | 0 mm | - | 93 W/m² | - |
| 1777895117 | 5° C | 96% | 1014.7 hPa | 0 mm | - | 87 W/m² | - |
| 1777894814 | 5° C | 97% | 1014.6 hPa | 0 mm | - | 92 W/m² | - |
* Rain latest hour (hover to see other rain measurements)
** Current wind speed in m/s (hover to see current wind gust speed)